Main page
METAR-TAF:

METAR-TAF

Airports :

Bandar Lengeh Airport

Bandar Lengeh, Iran

latitude: 26-35N, longitude: 054-50E, elevation: 14 m

Current weather observation

The report was made 3 hours and 3 minutes ago, at 21:00 UTC
Wind 14 kt from the West/Northwest
Temperature 29°C
Humidity 66%
Pressure 1005 hPa
Visibility: 5000 m
sand

METAR: OIBL 222100Z 30014KT 5000 SA NSC 29/22 Q1005 ???? METAR OIBS 222100 NIL

Time: 04:33 (00:03 UTC)


TAF: missing

Weather observations and forecasts of more than 4000 airports (METAR and TAF reports).

The available stations are represented by yellow and red dots on the map.

Hover mouse over dot to see the name of the station.

Then click to see weather observations and forecasts.

To change the map : click on the green buttons with a black cross to zoom in, on the green button with a dash to zoom out, or on the green arrows for adjacent maps.


METAR-TAF: